This is the latest recevied weather packets stored in our database for station/object KF6TYS-13. If no packets are shown the sender has not sent any weather packets the latest 10 day(s).
| Time | Temp. | Humidity | Pressure | Rain* | Wind** | Luminosity | Snow |
|---|---|---|---|---|---|---|---|
| 1777602625 | 55.56° C | 79% | 1011.8 hPa | 0 mm | - | - | - |
| 1777600823 | 56.11° C | 73% | 1011.6 hPa | 0 mm | - | - | - |
| 1777599023 | 56.11° C | 70% | 1011.7 hPa | 0 mm | - | - | - |
| 1777597221 | 56.11° C | 67% | 1011.6 hPa | 0 mm | - | - | - |
| 1777595420 | 56.11° C | 64% | 1011.3 hPa | 0 mm | - | - | - |
| 1777593619 | 56.11° C | 61% | 1011.5 hPa | 0 mm | - | - | - |
| 1777591818 | 56.67° C | 58% | 1011.6 hPa | 0 mm | - | - | - |
| 1777590018 | 56.67° C | 56% | 1011.8 hPa | 0 mm | - | - | - |
| 1777588218 | 56.67° C | 51% | 1012 hPa | 0 mm | - | - | - |
| 1777586416 | 57.22° C | 53% | 1012.2 hPa | 0 mm | - | - | - |
| 1777584614 | 57.22° C | 53% | 1012.5 hPa | 0 mm | - | - | - |
| 1777582814 | 57.22° C | 55% | 1012.7 hPa | 0 mm | - | - | - |
| 1777581013 | 57.22° C | 54% | 1012.6 hPa | 0 mm | - | - | - |
| 1777579212 | 57.22° C | 60% | 1012.8 hPa | 0 mm | - | - | - |
| 1777577411 | 57.22° C | 58% | 1013.1 hPa | 0 mm | - | - | - |
| 1777575641 | 56.67° C | 59% | 1013.3 hPa | 0 mm | - | - | - |
| 1777573840 | 56.67° C | 64% | 1013.5 hPa | 0 mm | - | - | - |
| 1777572038 | 56.11° C | 72% | 1013.8 hPa | 0 mm | - | - | - |
| 1777570237 | 54.44° C | 82% | 1014.1 hPa | 0 mm | - | - | - |
| 1777568438 | 53.89° C | 98% | 1014.5 hPa | 0 mm | - | - | - |
| 1777566635 | 53.33° C | 100% | 1014.5 hPa | 0 mm | - | - | - |
| 1777564836 | 54.44° C | 100% | 1014.7 hPa | 0 mm | - | - | - |
| 1777563033 | 54.44° C | 100% | 1014.8 hPa | 0 mm | - | - | - |
| 1777561233 | 53.89° C | 100% | 1014.9 hPa | 0 mm | - | - | - |
| 1777559432 | 53.89° C | 100% | 1014.8 hPa | 0 mm | - | - | - |
* Rain latest hour (hover to see other rain measurements)
** Current wind speed in m/s (hover to see current wind gust speed)